Location: Newark
(17.9939°S, 31.0481°E)
Time: 19:10:49
(UTC+00:00)

Courier 1B - Pass Details

Date: 19 November 2019
Orbit: 963 x 1209 km, 28.3° (Epoch: 15 December)

Event Time Altitude Azimuth Distance (km) Brightness Sun altitude
Rises 17:47:10 0° 252° (WSW) 3,991 12.1 -21.4°
Reaches altitude 10° 17:50:09 10° 244° (WSW) 3,064 11.2 -22.0°
Maximum altitude 17:57:12 38° 177° (S) 1,730 9.0 -23.5°
Enters shadow 18:02:34 18° 118° (ESE) 2,618 9.4 -24.5°
